Tracking 31027 objects as of 19-Jul-2025
HD Live streaming from Space Station
objects crossing your sky now

STARLINK-2469

Track STARLINK-2469 now!
10-day predictions
STARLINK-2469 is classified as:


NORAD ID: 48128
Int'l Code: 2021-027AN
Perigee: 553.5 km
Apogee: 555.2 km
Inclination: 53.1 °
Period: 95.6 minutes
Semi major axis: 6925 km
RCS: Unknown
Launch date: April 7, 2021
Source: United States (US)
Launch site: AIR FORCE EASTERN TEST RANGE (AFETR)
Your satellite tracking list
CZ-2C R/B
Track 1 satellite(s)




NASA's NSSDC Master Catalog

Two Line Element Set (TLE):
1 48128U 21027AN  25199.38473722  .00000267  00000-0  36843-4 0  9990
2 48128  53.0549  73.5349 0001230 112.3507 247.7612 15.06393192238075
Source of the keplerian elements: AFSPC